Wind_Speed
9 9 9 10 10 10 10 11 11 11 11 11 12 12 12 13 14 14 14 14 14 14 14 15 15 15 14 14 14 14 14 13 13 13 13 13 12 12 12 11 11 11 11
10 10 10 10 10 11 11 11 11 12 13 13 13 13 13 14 14 14 14 14 15 15 15 16 16 16 15 14 14 15 14 14 14 13 14 13 13 13 13 13 12 11 12
10 10 11 11 11 12 12 12 13 13 14 14 14 14 14 14 15 15 16 15 15 16 16 16 16 16 16 16 16 16 16 16 15 15 15 14 14 14 14 13 13 13 13
12 12 12 12 12 13 13 14 15 15 15 15 15 16 16 16 16 16 17 17 17 17 17 16 16 16 16 16 16 17 16 16 17 16 16 15 15 15 15 15 14 14 14
13 13 13 13 13 14 15 16 16 17 17 17 17 17 18 18 18 18 18 18 18 18 18 17 17 17 17 16 16 16 17 16 16 16 15 15 15 15 14 15 15 14 14
13 14 14 15 15 16 16 16 17 17 18 18 19 19 19 19 19 19 19 19 19 19 19 18 18 17 17 16 16 16 15 15 16 16 16 16 15 15 15 15 14 14 14
14 15 15 16 16 17 17 17 17 18 18 19 19 19 20 20 20 20 20 19 19 19 19 18 17 17 17 17 16 16 16 16 16 16 16 16 16 16 16 15 15 14 15
15 15 16 16 16 17 17 18 18 18 19 19 20 20 20 20 20 20 20 20 20 19 19 19 18 17 17 16 17 17 17 16 16 16 16 16 16 16 16 16 16 15 15
16 16 17 17 18 18 18 18 19 19 20 20 20 20 20 20 20 20 20 21 20 20 19 19 19 18 17 17 17 17 17 17 16 17 17 17 17 16 16 16 16 16 16
17 17 18 18 18 19 19 19 19 20 20 20 20 21 21 21 21 21 21 21 21 21 21 20 20 19 18 18 17 17 18 18 17 17 17 17 17 17 17 17 17 17 17
18 19 19 19 20 20 20 21 21 21 22 22 22 22 22 22 21 22 22 22 22 22 22 21 21 20 19 19 19 19 19 19 19 18 18 18 17 18 18 18 18 18 18
21 20 20 21 21 21 21 22 22 23 23 23 23 23 22 22 22 22 22 23 23 23 23 22 22 21 21 21 20 20 20 20 20 19 19 19 19 19 20 19 19 19 19
22 22 22 22 23 23 23 23 23 24 24 24 24 24 23 24 24 23 23 23 23 23 24 24 24 23 22 22 22 22 21 21 21 22 22 21 21 21 21 21 21 20 20
23 23 23 24 24 24 24 24 25 25 25 24 24 24 24 24 23 23 23 23 23 23 24 24 25 26 25 25 24 24 24 23 23 23 23 23 23 23 23 22 22 21 21
25 25 25 25 25 26 26 26 25 25 25 24 24 24 25 24 23 23 23 24 24 24 25 25 26 27 27 27 27 26 26 26 25 24 24 25 25 24 24 24 23 23 23
26 26 26 26 27 27 28 28 27 26 26 25 25 25 24 24 24 25 24 24 25 25 25 25 26 27 28 28 28 27 27 27 27 26 26 26 26 26 26 26 25 25 25
27 27 27 27 27 28 28 28 27 27 26 25 25 25 24 25 25 25 25 25 25 26 25 25 26 28 28 29 28 29 29 29 28 27 27 27 27 27 27 26 27 27 27
27 28 28 29 28 28 28 28 27 26 26 25 25 25 26 26 25 25 25 25 26 27 27 26 27 28 29 29 29 29 30 30 29 28 28 28 28 29 28 28 28 28 28
29 29 30 30 29 29 29 28 27 26 26 26 27 27 27 27 26 27 27 27 28 29 29 29 29 30 30 30 31 30 30 30 30 29 29 29 30 30 30 29 29 29 28
29 30 30 31 30 30 30 29 28 27 27 28 28 28 28 28 28 29 29 29 30 31 31 31 31 32 32 32 32 31 31 31 31 30 30 30 30 30 30 30 30 29 29
29 30 31 31 32 31 30 29 29 28 28 29 29 30 30 30 30 30 30 31 31 32 33 33 33 33 33 33 32 32 32 32 31 31 31 30 30 30 30 29 29 29 29
30 31 31 32 32 32 31 29 30 30 30 31 31 31 31 31 31 32 32 32 32 33 33 33 33 34 34 34 33 33 33 33 32 32 31 30 30 30 30 30 30 30 30
31 31 32 32 33 33 32 31 31 31 31 31 31 31 32 32 32 32 32 32 32 33 33 34 34 34 34 34 34 34 34 34 33 32 32 32 31 31 31 31 31 30 30
31 31 32 33 33 33 33 32 32 32 32 32 32 32 33 33 33 33 33 32 32 33 34 34 35 35 34 35 35 35 35 34 34 33 34 33 33 32 31 30 30 30 30
32 31 32 32 32 33 33 33 33 33 32 31 32 33 33 33 34 34 35 35 34 34 34 35 35 35 35 35 36 36 35 35 35 34 34 34 33 33 33 31 30 31 31
33 33 33 32 32 32 33 34 33 33 32 31 31 33 34 34 35 35 36 36 35 35 35 35 35 34 34 34 34 34 34 34 33 33 33 34 34 34 34 34 33 32 32
Wind_Direction
278 282 283 284 286 288 289 289 290 289 288 287 287 287 283 280 281 281 279 276 274 272 270 270 267 265 265 264 261 260 261 262 262 261 259 259 259 257 254 255 254 255 256
278 281 283 285 286 288 291 292 292 291 290 288 287 286 284 282 279 279 279 278 275 272 271 271 271 270 266 264 264 262 259 259 261 262 260 261 258 255 255 256 257 258 256
280 281 284 286 286 288 290 290 291 290 289 287 286 284 283 281 279 279 280 279 279 275 273 273 272 270 268 266 267 266 262 259 260 262 261 261 259 256 256 257 257 259 260
280 283 285 285 284 286 288 289 290 289 289 287 285 283 281 281 280 278 279 280 279 279 276 274 273 270 267 266 267 266 267 264 260 261 261 263 261 260 260 259 260 261 263
281 283 285 284 285 286 288 289 288 288 288 286 284 282 281 279 278 277 277 278 278 278 277 274 273 271 268 266 266 268 268 265 260 258 259 260 262 259 257 257 260 262 262
282 284 285 287 288 288 288 288 287 288 288 286 284 282 281 279 276 274 275 275 275 275 275 274 273 271 267 266 265 266 266 262 259 258 258 260 262 261 259 258 260 260 259
281 284 286 289 290 289 288 288 289 290 289 287 286 284 282 280 278 274 272 272 272 272 272 273 272 270 267 266 265 264 263 263 261 260 260 260 261 262 262 260 259 259 257
281 284 287 289 289 289 289 289 290 291 291 289 286 285 283 281 280 278 274 270 269 268 270 271 272 271 267 267 265 264 263 263 262 260 260 260 262 263 262 263 262 260 259
282 285 287 287 289 290 291 290 291 291 292 290 287 285 282 281 280 279 275 270 267 266 267 268 268 270 268 267 266 264 263 263 262 260 258 259 262 262 261 261 262 263 262
280 285 287 288 290 291 291 291 291 292 292 291 289 287 284 282 281 280 276 270 265 264 266 266 266 267 267 267 265 265 264 264 263 261 258 259 259 259 260 261 261 262 263
281 285 286 288 289 291 291 290 291 292 293 292 289 287 286 284 282 281 276 271 265 263 264 265 266 265 264 266 266 265 265 265 265 263 260 260 261 260 260 261 261 261 262
283 286 287 288 289 290 291 290 290 291 291 291 289 287 285 284 285 282 277 271 266 263 263 264 265 266 265 266 267 267 266 267 266 264 261 261 261 260 260 259 259 261 262
284 286 287 288 289 292 292 292 291 291 291 290 289 287 285 285 284 282 278 272 267 264 262 263 263 265 266 267 267 268 265 264 265 264 262 261 260 259 260 260 260 262 263
284 285 287 288 289 292 294 293 292 291 291 290 288 285 285 285 285 281 278 272 268 264 262 261 262 264 266 267 267 268 264 262 262 263 262 261 260 260 261 262 263 263 264
282 284 287 289 290 292 293 294 293 292 291 290 287 286 286 284 285 281 277 272 269 267 263 261 262 264 265 266 267 267 265 263 262 264 264 263 262 262 263 263 264 265 264
282 284 287 289 291 292 291 291 291 291 290 288 287 287 286 284 284 281 277 274 271 269 264 262 262 263 264 265 266 266 265 264 264 264 264 263 263 264 263 263 265 266 266
283 285 287 289 290 291 291 290 290 290 288 287 288 287 286 287 285 279 277 277 274 270 266 263 263 264 264 265 265 265 264 264 263 263 263 263 264 264 264 264 265 266 265
283 286 287 289 290 290 290 290 289 288 287 286 286 287 287 287 283 280 280 278 276 273 268 264 265 267 267 266 265 267 265 265 263 262 262 263 263 264 265 266 266 266 265
282 285 287 289 289 289 289 289 287 286 286 286 286 286 286 284 283 282 280 279 277 274 270 267 267 268 270 268 266 267 266 266 265 263 263 263 263 264 265 266 264 264 263
282 283 286 287 288 288 287 287 286 285 286 285 285 285 284 283 283 283 281 279 276 274 271 269 268 268 270 270 268 267 266 266 265 263 263 263 263 264 264 264 263 262 261
282 283 286 287 287 287 286 286 286 285 286 284 283 284 284 284 283 281 280 279 277 274 273 272 270 268 269 270 267 266 266 265 265 264 263 263 264 263 263 262 260 261 259
281 283 285 285 285 286 285 284 284 284 285 285 284 283 283 283 282 280 279 278 276 274 273 272 272 270 268 267 266 265 265 265 265 265 264 263 262 263 263 261 260 259 258
282 283 284 284 284 287 287 285 285 283 285 285 284 282 282 282 281 279 278 278 276 274 272 272 272 272 269 266 265 265 264 265 264 264 264 265 264 264 263 260 259 259 259
283 283 284 284 284 286 286 285 284 286 286 285 283 282 281 281 280 278 276 277 277 275 273 273 273 272 270 268 266 266 265 264 264 265 265 266 265 264 262 259 258 258 258
284 284 285 284 285 285 285 285 285 285 286 285 284 283 282 281 280 278 277 276 276 275 275 274 273 272 270 268 267 267 265 265 265 264 264 265 264 264 262 259 258 258 258
286 286 285 284 284 285 285 285 286 285 285 286 285 284 283 282 280 278 277 277 275 275 274 273 272 271 269 268 267 267 267 266 266 265 265 265 264 263 260 257 258 259 259
Height
5863 5862 5861 5861 5860 5859 5858 5857 5856 5855 5854 5853 5852 5851 5851 5849 5848 5848 5847 5846 5846 5845 5845 5845 5844 5844 5844 5844 5844 5843 5843 5844 5844 5844 5844 5844 5844 5844 5844 5844 5844 5845 5845
5861 5860 5859 5858 5857 5856 5855 5854 5853 5852 5851 5850 5849 5848 5848 5847 5845 5844 5844 5843 5842 5842 5842 5841 5841 5840 5840 5840 5840 5840 5840 5840 5840 5840 5840 5841 5841 5841 5841 5842 5842 5842 5842
5858 5858 5857 5856 5855 5854 5853 5852 5851 5850 5848 5847 5846 5845 5844 5843 5842 5841 5840 5840 5839 5839 5838 5838 5837 5837 5837 5837 5836 5836 5836 5837 5836 5837 5837 5837 5838 5838 5838 5838 5838 5839 5839
5856 5855 5854 5853 5852 5851 5850 5849 5848 5846 5845 5844 5842 5841 5840 5839 5838 5838 5837 5836 5835 5835 5834 5834 5833 5833 5833 5833 5833 5833 5833 5833 5833 5833 5833 5834 5834 5834 5835 5835 5835 5835 5835
5853 5852 5851 5850 5849 5848 5847 5846 5844 5843 5841 5840 5838 5837 5836 5835 5834 5833 5833 5832 5831 5831 5830 5830 5830 5829 5829 5829 5829 5829 5828 5828 5828 5829 5830 5830 5831 5831 5831 5832 5832 5832 5832
5850 5849 5848 5847 5846 5844 5843 5842 5840 5838 5837 5835 5833 5832 5830 5829 5828 5828 5828 5827 5827 5826 5826 5825 5825 5825 5825 5825 5825 5825 5824 5824 5824 5825 5826 5826 5827 5827 5828 5828 5828 5828 5829
5846 5845 5844 5843 5842 5841 5839 5838 5836 5834 5832 5830 5828 5827 5825 5824 5823 5822 5822 5822 5822 5822 5821 5821 5821 5821 5821 5821 5821 5821 5821 5821 5821 5822 5822 5823 5823 5823 5824 5824 5824 5825 5825
5842 5842 5840 5839 5838 5837 5835 5833 5831 5830 5828 5825 5823 5822 5820 5819 5817 5817 5816 5816 5817 5817 5817 5816 5816 5816 5817 5817 5817 5817 5817 5817 5818 5818 5819 5819 5819 5819 5820 5820 5820 5821 5821
5839 5837 5836 5835 5834 5832 5830 5828 5827 5825 5823 5820 5818 5816 5815 5813 5812 5811 5810 5810 5811 5811 5812 5812 5812 5812 5812 5812 5813 5813 5813 5814 5814 5814 5815 5815 5815 5815 5816 5816 5817 5817 5817
5834 5833 5832 5831 5829 5827 5826 5824 5822 5820 5818 5815 5813 5811 5809 5807 5806 5805 5804 5804 5805 5805 5806 5806 5807 5807 5807 5807 5808 5808 5809 5809 5809 5809 5810 5811 5811 5811 5811 5812 5812 5812 5812
5830 5829 5827 5826 5824 5822 5820 5818 5816 5814 5812 5809 5807 5805 5803 5801 5800 5799 5798 5798 5798 5799 5800 5801 5802 5802 5802 5803 5803 5803 5804 5804 5804 5804 5805 5806 5806 5806 5807 5807 5807 5807 5808
5825 5823 5822 5820 5819 5817 5815 5813 5811 5808 5806 5803 5801 5798 5797 5795 5793 5792 5791 5791 5792 5793 5794 5795 5796 5797 5797 5797 5798 5798 5798 5799 5799 5799 5800 5800 5801 5801 5802 5802 5802 5802 5803
5819 5818 5817 5815 5813 5811 5809 5807 5804 5802 5799 5797 5794 5792 5790 5788 5786 5785 5784 5785 5785 5787 5787 5789 5790 5790 5791 5792 5792 5792 5793 5793 5794 5794 5794 5795 5795 5796 5796 5796 5797 5797 5797
5814 5812 5811 5809 5807 5805 5802 5800 5798 5795 5792 5790 5787 5785 5783 5781 5780 5778 5778 5778 5779 5780 5781 5782 5783 5784 5784 5785 5786 5786 5787 5787 5787 5788 5789 5789 5789 5790 5790 5791 5791 5791 5791
5807 5806 5804 5802 5800 5798 5796 5793 5791 5788 5786 5783 5781 5779 5777 5775 5774 5772 5772 5772 5772 5773 5774 5775 5776 5777 5777 5778 5778 5779 5780 5781 5781 5782 5782 5783 5783 5783 5784 5784 5784 5784 5784
5800 5799 5798 5796 5793 5791 5789 5786 5784 5781 5779 5776 5774 5772 5770 5769 5767 5766 5765 5765 5765 5766 5767 5768 5769 5769 5770 5770 5771 5771 5772 5773 5774 5774 5775 5775 5776 5776 5776 5777 5777 5777 5777
5793 5792 5790 5788 5786 5784 5781 5779 5776 5774 5771 5769 5767 5765 5763 5762 5760 5759 5758 5758 5758 5758 5759 5761 5761 5761 5762 5762 5763 5763 5764 5765 5766 5766 5767 5767 5768 5768 5768 5769 5769 5769 5769
5786 5784 5783 5781 5778 5776 5774 5771 5769 5767 5764 5762 5760 5758 5757 5755 5753 5752 5752 5751 5751 5751 5752 5753 5753 5753 5753 5754 5755 5755 5755 5756 5757 5758 5758 5759 5759 5760 5760 5760 5760 5760 5760
5778 5776 5775 5773 5770 5768 5766 5763 5761 5759 5757 5755 5753 5752 5750 5748 5747 5745 5744 5744 5743 5743 5743 5744 5745 5745 5745 5745 5746 5746 5747 5747 5748 5749 5749 5750 5750 5750 5751 5751 5751 5751 5751
5770 5768 5766 5764 5762 5760 5758 5756 5753 5751 5750 5747 5746 5744 5742 5741 5739 5737 5736 5736 5735 5735 5735 5735 5735 5736 5736 5736 5736 5737 5737 5738 5739 5739 5740 5740 5741 5741 5741 5741 5742 5742 5742
5761 5759 5758 5756 5753 5751 5749 5747 5745 5743 5741 5739 5737 5736 5734 5732 5730 5729 5728 5727 5726 5726 5726 5725 5726 5726 5726 5726 5726 5726 5727 5728 5729 5729 5730 5731 5731 5732 5732 5732 5732 5733 5733
5752 5750 5748 5746 5744 5742 5741 5738 5737 5734 5732 5730 5728 5726 5725 5723 5721 5720 5719 5718 5717 5716 5716 5716 5716 5716 5716 5716 5716 5716 5717 5718 5719 5720 5720 5721 5721 5722 5722 5722 5723 5723 5724
5742 5741 5739 5737 5735 5733 5731 5729 5727 5725 5723 5721 5718 5717 5715 5714 5712 5711 5709 5708 5707 5706 5706 5706 5705 5705 5705 5705 5705 5706 5706 5707 5708 5709 5710 5711 5711 5711 5712 5713 5713 5714 5715
5733 5731 5729 5727 5726 5724 5722 5720 5718 5715 5713 5711 5709 5707 5705 5704 5702 5701 5699 5698 5697 5696 5695 5695 5695 5694 5694 5694 5694 5694 5695 5696 5698 5698 5699 5700 5701 5701 5702 5703 5704 5705 5706
5723 5721 5719 5718 5716 5715 5712 5710 5708 5706 5703 5701 5699 5697 5695 5693 5692 5690 5689 5688 5687 5685 5684 5684 5683 5683 5683 5683 5683 5684 5684 5685 5686 5688 5688 5689 5690 5691 5692 5693 5694 5696 5697
5714 5711 5710 5708 5706 5705 5702 5700 5698 5696 5693 5691 5689 5686 5684 5683 5681 5679 5677 5676 5675 5674 5673 5673 5672 5672 5672 5672 5673 5673 5674 5675 5676 5677 5678 5678 5679 5679 5681 5683 5684 5686 5687